Regional Weather Roundup
Issued by NWS Jackson, KY

Home | Current Version | Previous Version | Text Only | Print | Product List | Glossary Off
Versions: 1 2 3 4 5 6 7 8 9 10 11 12 13 14 15 16 17 18 19 20 21 22 23 24 25 26 27 28 29 30 31 32 33 34 35 36 37 38 39 40 41 42 43 44 45 46 47 48 49 50

584
ASUS43 KJKL 162310
RWRJKL

EAST KENTUCKY HOURLY WEATHER ROUNDUP
NATIONAL WEATHER SERVICE JACKSON KY
600 PM EST MON JAN 16 2017

NOTE: "FAIR" INDICATES FEW OR NO CLOUDS BELOW 12,000 FEET WITH
NO SIGNIFICANT WEATHER AND/OR OBSTRUCTIONS TO VISIBILITY.

* THESE REPORTS ARE NOT UNDER NWS QUALITY CONTROL AND MAY NOT
  REPORT WEATHER SUCH AS PRECIPITATION AND FOG.

KYZ079-080-083-085-087-088-110-112-115-119-120-170000
...EASTERN KENTUCKY...

CITY           SKY/WX    TMP DP  RH WIND       PRES   REMARKS
JACKSON        CLOUDY    61  48  62 VRB5      30.19S
LONDON         CLOUDY    61  49  64 S5        30.18S
SOMERSET*      CLOUDY    61  50  67 S3        30.17F
MONTICELLO*    CLOUDY    62  53  72 E7        30.17F
WILLIAMSBURG*  CLOUDY    59  54  82 SE6       30.18S
MIDDLESBORO*   CLOUDY    61  53  73 S3        30.22S
HARLAN APT*    CLOUDY    61  50  67 S3        30.22S
PIKE CO APT*     N/A     62  47  58 S3        30.20S
MOREHEAD APT*  CLOUDY    59  52  77 SE3       30.18F
ASHLAND*       MOCLDY    48  46  93 CALM      30.18S
$$

KYZ035-036-041-042-044-050-067-078-099-170000
...CENTRAL KENTUCKY...

CITY           SKY/WX    TMP DP  RH WIND       PRES   REMARKS
MT STERLING*   CLOUDY    61  52  72 S7        30.17F
FLEMING/MASON* CLOUDY    54  51  92 E6        30.17F
DANVILLE*      CLOUDY    59  52  77 S5        30.16S
LEXINGTON      CLOUDY    61  52  72 SE6       30.14F
FRANKFORT      LGT RAIN  56  51  84 CALM      30.12F
LOUISVILLE     LGT RAIN  53  50  89 NW3       30.12S
LEBANON*         N/A     61  52  72 SE6       30.13F
GLASGOW*       LGT RAIN  64  53  67 SE3       30.11S
BOWLING GREEN  CLOUDY    66  53  63 S8        30.10S
$$

KYZ091>093-OHZ055-061-077-WVZ005-015-034-035-042-170000
...SOUTHERN OHIO/WEST VIRGINIA...

CITY           SKY/WX    TMP DP  RH WIND       PRES   REMARKS
COVINGTON      CLOUDY    49  48  97 CALM      30.15S FOG
COLUMBUS       CLOUDY    46  43  89 E5        30.19S
DAYTON         CLOUDY    47  45  93 SE7       30.16R
WILMINGTON     CLOUDY    47  46  97 E5        30.16S
HUNTINGTON     PTCLDY    51  47  86 N6        30.19R
CHARLESTON     CLOUDY    55  50  83 NE3       30.19F
BECKLEY        CLOUDY    54  50  86 CALM      30.24S
BLUEFIELD      CLOUDY    54  44  69 SW3       30.26S
LOGAN CO APT*    N/A     59  54  82 CALM      30.20S
$$

VAZ002-007-008-TNZ017-027-036-066-071-170000
...SOUTHWEST VIRGINIA/EAST TENNESSEE...

CITY           SKY/WX    TMP DP  RH WIND       PRES   REMARKS
WISE*          CLOUDY    57  46  67 CALM      30.25S
JONESVILLE*    CLOUDY    59  55  88 CALM      30.24S
ABINGDON*      CLOUDY    61  46  58 CALM      30.24S
BRISTOL        MOCLDY    61  47  59 CALM      30.22S
MORRISTOWN*    MOCLDY    59  57  94 CALM      30.21S
SEVIERVILLE*   MOCLDY    57  54  88 CALM      30.20S
KNOXVILLE      CLOUDY    60  53  77 CALM      30.20S
LAFOLLETTE*    MOCLDY    57  54  88 CALM      30.24R
OAK RIDGE      CLOUDY    59  54  83 CALM      30.22R
CROSSVILLE     MOCLDY    59  51  75 S5        30.20S
NASHVILLE      CLOUDY    68  50  52 S9        30.12S
$$

...KEY TO REMARKS...
VSB - VISIBILITY IN MILES
WCI - WIND CHILL INDEX
HX  - HEAT INDEX

$$




USA.gov is the U.S. government's official web portal to all federal, state and local government web resources and services.